Location: CCZU
(31.6840°N, 119.9550°E)
Time: 11:32:24
(UTC+08:00)

Hubble Space Telescope - Pass Details

Date: 30 September 2022
Orbit: 530 x 534 km, 28.5° (Epoch: 28 November)

Event Time Altitude Azimuth Distance (km) Brightness Sun altitude
Rises 19:13:43 0° 268° (W) 2,652 5.8 -19.2°
Reaches altitude 10° 19:16:01 10° 262° (W) 1,763 4.5 -19.7°
Maximum altitude 19:19:56 47° 188° (S) 705 1.3 -20.5°
Enters shadow 19:20:26 44° 165° (SSE) 734 1.2 -20.6°
